CAPE
0 0 0 0 0 0 0 0 0 0 0 0 0 0 0 0 0 0 0 0 0 0 0 0 0 0 0 0 0 0 0 0 0 0 0 0 0 0 0 0 0 0 0 0 0
0 0 0 0 0 0 0 0 0 0 0 0 0 0 0 0 0 0 0 0 0 0 0 0 0 0 0 0 0 0 0 0 0 0 0 0 0 0 0 0 0 0 0 0 0
0 0 0 0 0 0 0 0 0 0 0 0 0 0 0 0 0 0 0 0 0 0 0 0 0 0 0 0 0 0 0 0 0 0 0 0 0 0 0 0 0 0 0 0 0
0 0 0 0 0 0 0 0 0 0 0 0 0 0 0 0 0 0 0 0 0 0 0 0 0 0 0 0 0 0 0 0 0 0 0 0 0 0 0 0 0 0 0 0 0
0 0 0 0 0 0 0 0 0 0 0 0 0 0 0 0 0 0 0 0 0 0 0 0 0 0 0 0 0 0 0 0 0 0 0 0 0 0 0 0 0 0 0 0 0
0 0 0 0 0 0 0 0 0 0 0 0 0 0 0 0 0 0 0 0 0 0 0 0 0 0 0 0 0 0 0 0 0 0 0 0 0 0 0 0 0 0 0 0 0
0 0 0 0 0 0 0 0 0 0 0 0 0 0 0 0 0 0 0 0 0 0 0 0 0 0 0 0 0 0 0 0 0 0 0 0 0 0 0 0 0 0 0 0 0
0 0 0 0 0 0 0 0 0 0 0 0 0 0 0 0 0 0 0 0 0 0 0 0 0 0 0 0 0 0 0 0 0 0 0 0 0 0 0 0 0 0 0 0 0
0 0 0 0 0 0 0 0 0 0 0 0 0 0 0 0 0 0 0 0 0 0 0 0 0 0 0 0 0 0 0 0 0 0 0 0 0 0 0 0 0 0 0 0 0
0 0 0 0 0 0 0 0 0 0 0 0 0 0 0 0 0 0 0 0 0 0 0 0 0 0 0 0 0 0 0 0 0 0 0 0 0 0 0 0 0 0 0 0 0
0 0 0 0 0 0 0 0 0 0 0 0 0 0 0 0 0 0 0 0 0 0 0 0 0 0 0 0 0 0 0 0 0 0 0 0 0 0 0 0 0 0 0 0 0
0 0 0 0 0 3 0 0 0 0 0 0 0 0 0 0 0 0 0 0 0 0 0 0 0 0 0 0 0 0 0 0 0 0 0 0 0 0 0 0 0 0 0 0 0
0 0 0 0 1 2 0 0 0 0 0 0 0 0 0 0 0 0 0 0 0 0 0 0 0 0 0 0 0 0 0 0 0 0 0 0 0 0 0 0 0 0 0 0 0
0 0 0 0 12 0 0 0 0 0 0 0 0 0 0 0 0 0 0 0 0 0 0 0 0 0 0 0 0 0 0 0 0 0 0 0 0 0 0 0 0 0 0 0 0
0 0 0 2 1 0 0 0 0 0 0 0 0 0 0 0 0 0 0 0 0 0 0 0 0 0 0 0 0 0 0 0 0 0 0 0 0 0 0 0 0 0 0 0 0
0 0 0 9 11 0 0 0 0 0 0 0 0 0 0 0 0 0 0 0 0 0 0 0 0 0 0 0 0 0 0 0 0 0 0 0 0 0 0 0 0 0 0 0 0
0 0 0 6 6 0 0 0 4 0 0 0 0 0 0 0 0 0 0 0 0 0 0 0 0 0 0 0 0 0 0 0 0 0 0 0 0 0 0 0 0 0 0 0 0
0 1 0 2 8 0 0 18 1 0 0 0 0 0 0 0 0 0 0 0 0 0 0 0 0 0 0 0 0 0 0 0 0 0 0 0 0 0 0 0 0 0 0 0 0
0 1 2 3 0 0 5 7 0 0 0 0 0 0 0 0 0 0 0 0 0 0 0 0 0 0 0 0 0 0 0 0 0 0 0 0 0 0 0 0 0 0 0 0 0
3 2 2 0 0 1 8 3 0 0 0 0 0 0 0 0 0 0 0 0 0 0 0 0 0 0 0 0 0 0 0 0 0 0 0 0 0 0 0 0 0 0 0 0 0
4 1 0 7 2 4 2 2 1 0 0 0 0 0 0 0 0 0 0 0 0 0 0 0 0 0 0 0 0 0 0 0 0 0 0 0 0 0 0 0 0 0 0 0 0
0 4 0 1 2 6 6 10 9 0 0 0 0 0 0 0 0 0 0 0 0 0 0 0 0 0 0 0 0 0 0 0 0 0 0 0 0 0 0 0 0 0 0 0 0
2 0 1 0 4 3 1 4 1 0 0 0 0 0 0 0 0 0 0 0 0 0 0 0 0 0 0 0 0 0 0 0 0 0 0 0 0 0 0 0 0 0 0 0 0
0 0 0 1 0 2 3 1 0 0 0 0 0 0 0 0 0 0 0 0 0 0 0 0 0 0 0 0 0 0 0 0 0 0 0 0 0 0 0 0 0 0 0 0 0
0 0 0 0 1 1 0 0 2 0 0 0 0 0 0 0 0 0 0 0 0 0 0 0 0 0 0 0 0 0 0 0 0 0 0 0 0 0 0 0 0 0 0 0 0
0 0 0 2 0 1 1 2 2 1 0 0 1 0 0 1 0 0 0 0 0 0 0 0 0 0 0 0 0 0 0 0 0 0 0 0 0 0 0 0 0 0 0 0 0
1 0 1 0 0 1 0 0 0 2 2 0 0 1 1 0 0 0 0 0 0 0 0 0 0 0 0 0 0 0 0 0 0 0 0 0 0 0 0 0 0 0 0 0 0
CIN
-0 -0 -0 -0 -0 -0 -0 -0 -0 -0 -0 -0 -0 -0 -0 -0 -0 -0 -0 -0 -0 -0 -0 -0 -0 -0 -0 -0 -0 -0 -0 -0 -0 -0 -0 -0 -0 -0 -0 -0 -0 -0 -0 -0 -0
-0 -0 -0 -0 -0 -0 -0 -0 -0 -0 -0 -0 -0 -0 -0 -0 -0 -0 -0 -0 -0 -0 -0 -0 -0 -0 -0 -0 -0 -0 -0 -0 -0 -0 -0 -0 -0 -0 -0 -0 -0 -0 -0 -0 -0
-0 -0 -0 -0 -0 -0 -0 -0 -0 -0 -0 -0 -0 -0 -0 -0 -0 -0 -0 -0 -0 -0 -0 -0 -0 -0 -0 -0 -0 -0 -0 -0 -0 -0 -0 -0 -0 -0 -0 -0 -0 -0 -0 -0 -0
-0 -0 -0 -0 -0 -0 -0 -0 -0 -0 -0 -0 -0 -0 -0 -0 -0 -0 -0 -0 -0 -0 -0 -0 -0 -0 -0 -0 -0 -0 -0 -0 -0 -0 -0 -0 -0 -0 -0 -0 -0 -0 -0 -0 -0
-0 -0 -0 -0 -0 -0 -0 -0 -0 -0 -0 -0 -0 -0 -0 -0 -0 -0 -0 -0 -0 -0 -0 -0 -0 -0 -0 -0 -0 -0 -0 -0 -0 -0 -0 -0 -0 -0 -0 -0 -0 -0 -0 -0 -0
-0 -0 -0 -0 -0 -0 -0 -0 -0 -0 -0 -0 -0 -0 -0 -0 -0 -0 -0 -0 -0 -0 -0 -0 -0 -0 -0 -0 -0 -0 -0 -0 -0 -0 -0 -0 -0 -0 -0 -0 -0 -0 -0 -0 -0
-0 -0 -0 -0 -0 -0 -0 -0 -0 -0 -0 -0 -0 -0 -0 -0 -0 -0 -0 -0 -0 -0 -0 -0 -0 -0 -0 -0 -0 -0 -0 -0 -0 -0 -0 -0 -0 -0 -0 -0 -0 -0 -0 -0 -0
-0 -0 -0 -0 -0 -0 -0 -0 -0 -0 -0 -0 -0 -0 -0 -0 -0 -0 -0 -0 -0 -0 -0 -0 -0 -0 -0 -0 -0 -0 -0 -0 -0 -0 -0 -0 -0 -0 -0 -0 -0 -0 -0 -0 -0
-0 -0 -0 -0 -0 -0 -0 -0 -0 -0 -0 -0 -0 -0 -0 -0 -0 -0 -0 -0 -0 -0 -0 -0 -0 -0 -0 -0 -0 -0 -0 -0 -0 -0 -0 -0 -0 -0 -0 -0 -0 -0 -0 -0 -0
-0 -0 -0 -0 -0 -0 -0 -0 -0 -0 -0 -0 -0 -0 -0 -0 -0 -0 -0 -0 -0 -0 -0 -0 -0 -0 -0 -0 -0 -0 -0 -0 -0 -0 -0 -0 -0 -0 -0 -0 -0 -0 -0 -0 -0
-0 -0 -0 -0 -0 -0 -0 -0 -0 -0 -0 -0 -0 -0 -0 -0 -0 -0 -0 -0 -0 -0 -0 -0 -0 -0 -0 -0 -0 -0 -0 -0 -0 -0 -0 -0 -0 -0 -0 -0 -0 -0 -0 -0 -0
-0 -0 -0 -0 -0 -0 -0 -0 -0 -0 -0 -0 -0 -0 -0 -0 -0 -0 -0 -0 -0 -0 -0 -0 -0 -0 -0 -0 -0 -0 -0 -0 -0 -0 -0 -0 -0 -0 -0 -0 -0 -0 -0 -0 -0
-0 -0 -0 -0 -0 -1 -0 -0 -0 -0 -0 -0 -0 -0 -0 -0 -0 -0 -0 -0 -0 -0 -0 -0 -0 -0 -0 -0 -0 -0 -0 -0 -0 -0 -0 -0 -0 -0 -0 -0 -0 -0 -0 -0 -0
-0 -0 -0 -0 -1 -3 -0 -0 -0 -0 -0 -0 -0 -0 -0 -0 -0 -0 -0 -0 -0 -0 -0 -0 -0 -0 -0 -0 -0 -0 -0 -0 -0 -0 -0 -0 -0 -0 -0 -0 -0 -0 -0 -0 -0
-0 -0 -0 -3 -7 -0 -0 -0 -0 -0 -0 -0 -0 -0 -0 -0 -0 -0 -0 -0 -0 -0 -0 -0 -0 -0 -0 -0 -0 -0 -0 -0 -0 -0 -0 -0 -0 -0 -0 -0 -0 -0 -0 -0 -0
-0 -0 -0 -0 -3 -0 -0 -0 -0 -0 -0 -0 -0 -0 -0 -0 -0 -0 -0 -0 -0 -0 -0 -0 -0 -0 -0 -0 -0 -0 -0 -0 -0 -0 -0 -0 -0 -0 -0 -0 -0 -0 -0 -0 -0
-0 -0 -0 -0 -0 -0 -0 -0 -4 -0 -0 -0 -0 -0 -0 -0 -0 -0 -0 -0 -0 -0 -0 -0 -0 -0 -0 -0 -0 -0 -0 -0 -0 -0 -0 -0 -0 -0 -0 -0 -0 -0 -0 -0 -0
-0 -0 -0 -0 -3 -0 -0 -6 -0 -0 -0 -0 -0 -0 -0 -0 -0 -0 -0 -0 -0 -0 -0 -0 -0 -0 -0 -0 -0 -0 -0 -0 -0 -0 -0 -0 -0 -0 -0 -0 -0 -0 -0 -0 -0
-0 -0 -0 -0 -7 -0 -13 -0 -0 -0 -0 -0 -0 -0 -0 -0 -0 -0 -0 -0 -0 -0 -0 -0 -0 -0 -0 -0 -0 -0 -0 -0 -0 -0 -0 -0 -0 -0 -0 -0 -0 -0 -0 -0 -0
-28 -0 -0 -0 -0 -3 -0 -0 -0 -1 -0 -0 -0 -0 -0 -0 -0 -0 -0 -0 -0 -0 -0 -0 -0 -0 -0 -0 -0 -0 -0 -0 -0 -0 -0 -0 -0 -0 -0 -0 -0 -0 -0 -0 -0
-7 -3 -0 -4 -0 -1 -0 -0 -0 -0 -0 -0 -0 -0 -0 -0 -0 -0 -0 -0 -0 -0 -0 -0 -0 -0 -0 -0 -0 -0 -0 -0 -0 -0 -0 -0 -0 -0 -0 -0 -0 -0 -0 -0 -0
-0 -2 -0 -1 -9 -0 -0 -0 -1 -0 -0 -0 -0 -0 -0 -0 -0 -0 -0 -0 -0 -0 -0 -0 -0 -0 -0 -0 -0 -0 -0 -0 -0 -0 -0 -0 -0 -0 -0 -0 -0 -0 -0 -0 -0
-16 -0 -0 -0 -0 -0 -5 -3 -8 -0 -0 -0 -0 -0 -0 -0 -0 -0 -0 -0 -0 -0 -0 -0 -0 -0 -0 -0 -0 -0 -0 -0 -0 -0 -0 -0 -0 -0 -0 -0 -0 -0 -0 -0 -0
-0 -0 -0 -0 -0 -0 -0 -0 -0 -0 -0 -0 -0 -0 -0 -0 -0 -0 -0 -0 -0 -0 -0 -0 -0 -0 -0 -0 -0 -0 -0 -0 -0 -0 -0 -0 -0 -0 -0 -0 -0 -0 -0 -0 -0
-0 -0 -1 -0 -0 -0 -0 -0 -0 -0 -0 -0 -0 -0 -0 -0 -0 -0 -0 -0 -0 -0 -0 -0 -0 -0 -0 -0 -0 -0 -0 -0 -0 -0 -0 -0 -0 -0 -0 -0 -0 -0 -0 -0 -0
-0 -0 -0 -0 -0 -0 -0 -0 -0 -0 -0 -0 -0 -0 -0 -0 -0 -0 -0 -0 -0 -0 -0 -0 -0 -0 -0 -0 -0 -0 -0 -0 -0 -0 -0 -0 -0 -0 -0 -0 -0 -0 -0 -0 -0
-0 -0 -0 -0 -0 -0 -0 -0 -0 -0 -0 -0 -0 -0 -0 -0 -0 -0 -0 -0 -0 -0 -0 -0 -0 -0 -0 -0 -0 -0 -0 -0 -0 -0 -0 -0 -0 -0 -0 -0 -0 -0 -0 -0 -0
Wind_Speed
17 17 18 18 19 19 20 20 20 21 22 23 24 25 25 26 25 20 21 18 17 14 16 15 17 18 18 18 18 17 17 16 15 14 14 16 18 14 16 14 15 15 16 19 22
20 20 20 21 21 21 21 22 22 23 24 25 25 26 26 27 24 23 18 17 16 13 14 14 16 18 19 19 19 17 18 16 15 13 15 18 17 19 18 20 15 15 19 25 24
23 23 23 23 23 23 23 23 24 25 25 26 27 26 26 25 23 18 17 15 13 13 14 16 17 19 19 18 17 16 17 15 16 13 17 20 21 16 18 19 17 22 29 26 24
25 25 25 24 24 24 24 25 25 26 27 27 27 27 26 21 22 16 16 15 13 14 15 17 19 19 19 18 17 18 16 15 17 17 19 21 21 20 16 17 19 19 19 21 23
27 26 26 26 25 25 26 26 26 27 28 28 26 26 21 21 19 18 17 15 14 14 17 18 18 17 19 18 18 17 18 17 17 19 18 19 17 19 16 19 17 17 20 22 23
28 27 27 27 26 26 26 27 27 28 29 28 26 24 21 24 18 17 16 16 15 15 16 16 16 15 19 18 18 19 20 22 22 18 17 17 18 15 17 16 17 19 21 22 25
29 28 27 27 27 27 27 28 29 30 29 27 24 22 23 24 18 17 17 17 15 15 16 16 15 16 16 19 19 21 26 27 22 19 14 13 17 14 17 18 19 22 23 24 26
30 29 28 27 28 27 27 28 30 30 27 24 21 21 26 20 17 17 16 17 15 16 16 15 15 16 18 17 22 23 23 25 19 19 19 16 16 16 21 26 25 24 24 25 27
31 29 28 27 27 27 28 29 29 25 22 20 22 22 29 18 19 16 16 17 15 16 16 14 15 18 18 20 25 23 26 23 26 21 19 18 20 20 33 29 24 24 24 23 24
30 29 29 27 26 27 28 28 24 23 22 22 22 25 22 22 17 14 14 12 16 14 16 17 18 18 19 19 27 23 24 24 24 23 22 25 32 32 30 23 20 20 21 21 22
31 29 28 27 25 25 25 24 27 27 24 24 23 22 20 17 16 16 13 13 15 17 19 18 20 20 16 14 22 24 25 27 25 23 27 26 26 26 21 19 18 18 18 18 19
30 29 26 26 24 21 21 24 24 23 34 27 27 28 23 18 21 17 13 17 19 23 19 24 26 20 21 20 23 25 28 29 29 24 23 26 25 20 20 19 16 14 15 15 16
30 28 26 24 23 24 23 24 21 22 34 35 28 28 25 19 25 20 13 19 23 24 22 27 28 21 23 25 25 26 25 26 26 25 24 27 27 18 18 14 13 13 13 13 14
30 28 24 21 26 26 27 22 19 20 37 38 30 28 21 19 29 21 16 21 24 27 25 32 29 29 27 27 22 27 20 19 22 24 28 23 33 23 17 14 11 11 10 11 12
32 27 24 21 25 24 25 14 13 19 44 26 23 19 16 17 20 23 19 23 27 26 24 29 28 25 27 25 15 21 15 15 18 23 28 25 30 28 18 18 12 8 6 7 8
30 28 23 28 29 23 16 10 14 28 45 27 20 20 19 19 20 18 18 18 19 22 26 27 22 20 19 17 14 11 16 20 23 26 35 26 23 29 21 20 10 5 4 4 5
32 29 28 26 32 21 14 14 29 40 27 33 30 23 24 23 22 21 20 20 21 22 22 21 20 17 14 13 13 13 16 29 32 30 34 26 26 24 18 17 12 6 4 3 3
31 29 31 30 24 19 20 26 40 41 38 27 25 22 24 20 23 20 19 20 19 17 17 17 21 14 13 16 17 16 18 24 36 33 33 27 32 29 21 18 13 6 4 3 3
29 29 33 32 26 22 27 41 44 36 29 29 24 28 28 26 23 20 20 21 17 14 18 17 21 14 14 15 15 19 23 20 28 30 38 33 30 28 24 21 14 7 4 5 6
32 34 34 28 27 28 36 43 40 34 24 26 34 28 32 26 25 22 21 20 20 17 15 17 22 17 16 15 18 18 13 25 25 35 39 34 35 32 24 18 13 9 9 9 9
31 34 30 22 28 36 44 42 40 34 28 31 35 32 31 29 27 27 25 23 18 16 17 15 21 22 17 22 20 19 22 22 22 27 36 42 37 22 22 16 14 13 11 11 12
30 37 27 23 35 39 47 41 41 35 32 32 32 32 33 27 27 28 28 25 15 14 20 18 22 30 27 22 19 20 22 22 30 32 30 34 40 23 24 17 13 14 12 13 15
29 31 24 27 42 45 40 40 40 35 36 36 34 31 31 30 31 30 28 24 16 16 18 19 26 32 31 28 22 26 25 23 25 28 35 38 38 24 22 18 18 19 18 18 19
34 37 35 36 38 43 41 44 41 36 36 33 34 32 33 35 33 30 30 25 21 23 21 18 25 30 36 31 23 29 27 26 27 36 35 37 38 28 24 25 24 22 21 21 22
30 40 35 41 46 42 39 39 40 41 38 34 38 37 38 40 37 35 29 26 22 21 23 22 30 28 29 30 30 32 32 30 33 34 39 40 40 33 30 30 27 23 24 26 30
36 37 35 40 37 41 39 42 40 39 37 41 39 38 37 37 35 35 29 27 27 23 25 25 32 29 35 33 33 38 36 33 34 34 36 37 44 29 29 28 29 30 32 35 34
27 27 31 36 38 41 43 41 39 35 37 36 36 34 36 35 30 27 26 28 27 28 29 28 30 33 41 35 38 46 42 38 37 35 36 42 40 34 35 34 33 32 30 29 28
Wind_Direction
302 302 302 303 303 304 305 307 308 308 309 310 310 308 309 304 305 328 317 323 321 339 335 341 337 339 350 352 356 3 353 354 359 6 9 4 357 13 10 11 13 11 6 355 348
293 297 298 299 300 302 304 305 307 309 309 309 310 308 310 311 317 315 327 329 335 356 348 346 343 343 340 341 346 350 346 352 2 9 358 350 357 347 355 348 7 6 353 335 335
289 290 294 296 298 300 302 305 307 308 310 308 310 309 309 319 321 329 326 334 346 350 350 348 345 337 336 341 345 350 344 355 353 358 350 343 339 353 353 350 357 345 312 330 336
287 288 290 293 296 298 301 304 306 308 309 310 312 311 312 326 314 334 331 336 343 340 340 337 334 333 334 338 343 340 343 346 344 346 342 337 337 339 348 354 352 350 356 356 348
286 288 290 292 295 297 300 303 305 307 309 312 315 315 323 320 320 326 330 332 334 332 328 329 330 333 330 335 336 334 334 337 337 335 338 337 339 337 342 346 3 1 352 348 345
284 286 289 292 294 297 300 302 305 306 308 312 314 317 318 309 323 325 327 327 326 327 324 328 329 333 330 330 331 332 329 327 328 334 336 336 340 352 354 358 357 353 350 346 339
282 285 288 291 294 297 300 302 303 304 307 311 316 317 310 306 319 322 322 321 324 323 319 323 329 328 336 327 327 326 320 319 327 331 343 351 337 344 346 347 346 340 337 336 336
280 283 287 290 292 295 298 301 302 304 309 314 318 315 303 316 319 315 317 318 324 325 323 327 328 326 324 330 321 321 322 319 331 332 332 337 334 339 335 330 329 331 332 332 331
279 281 284 288 291 295 298 300 303 308 312 317 313 310 300 318 311 313 314 312 316 320 323 328 325 318 321 315 311 316 311 317 317 325 325 324 324 329 319 322 326 328 330 334 336
277 279 282 285 289 293 297 300 305 308 307 309 307 303 301 304 314 318 318 321 314 316 315 313 313 309 312 308 304 312 311 313 317 321 319 315 308 314 323 333 337 339 339 340 342
276 278 280 283 286 292 297 300 296 296 294 289 299 298 306 313 316 309 315 314 315 308 300 305 298 296 296 298 306 310 309 308 314 317 314 315 316 320 337 345 346 345 347 350 352
273 275 277 280 284 290 295 290 295 302 291 290 287 288 296 300 296 297 305 298 297 292 297 297 288 296 303 301 301 305 305 305 310 317 317 315 316 326 332 338 349 360 358 359 3
269 271 274 277 281 282 283 285 303 307 291 287 285 284 285 284 288 284 284 295 293 288 286 285 293 302 296 296 296 299 300 304 306 313 316 314 313 320 332 345 351 356 1 5 11
266 266 268 273 277 277 279 286 294 307 288 285 285 286 284 284 285 288 279 291 290 283 287 288 290 290 291 291 292 295 303 305 306 307 306 322 307 317 324 329 337 345 355 358 4
261 261 258 255 276 273 283 276 290 299 281 292 285 298 294 282 293 290 287 287 282 281 284 288 293 288 286 290 289 299 315 315 314 308 309 313 310 314 323 314 317 328 348 5 15
258 256 252 257 268 278 278 271 281 276 272 284 289 286 286 289 293 300 292 298 296 287 286 286 299 296 291 292 287 310 310 313 312 307 300 309 307 314 319 322 318 324 335 356 16
257 252 246 253 259 261 257 260 264 262 281 278 279 281 282 283 285 288 281 275 280 284 280 286 283 296 295 293 299 295 303 301 301 302 299 313 308 305 321 326 327 305 300 322 348
255 251 244 247 254 241 248 251 259 267 262 284 285 281 275 281 284 282 280 269 270 282 292 277 282 267 279 287 292 287 293 297 298 301 303 311 303 313 322 323 322 304 288 293 302
265 259 252 242 237 233 244 246 254 260 267 264 277 276 275 277 282 276 272 273 263 245 282 278 285 293 291 290 291 295 291 303 302 305 301 303 307 310 314 319 318 298 266 263 285
267 263 258 239 233 234 241 247 257 259 268 263 263 270 272 268 269 268 267 278 268 240 274 288 290 292 288 296 300 293 303 298 300 300 300 304 305 304 313 311 314 299 285 281 286
265 267 265 237 233 244 244 251 255 260 257 260 264 267 271 268 265 267 273 282 263 254 253 278 285 290 289 282 278 289 288 299 301 298 300 303 305 317 318 313 302 292 282 283 287
259 261 267 232 242 251 247 252 255 260 254 261 269 263 263 261 263 261 261 277 268 254 256 266 286 281 282 294 291 287 285 283 289 296 297 299 298 317 319 312 302 296 288 291 292
255 259 263 255 250 250 256 254 257 256 255 253 260 260 268 254 266 261 266 276 269 260 260 258 279 281 288 290 293 285 284 284 291 293 287 294 299 318 320 313 304 297 292 294 294
257 258 262 255 263 256 255 255 255 257 257 259 259 262 259 262 265 265 265 271 271 268 271 262 273 275 276 287 294 288 284 282 280 284 290 284 294 303 306 306 303 296 296 298 298
256 257 259 257 253 258 254 259 254 255 256 256 259 257 254 261 261 264 266 266 270 269 271 269 273 279 284 287 287 288 286 280 279 281 284 292 291 296 297 299 298 294 299 299 301
259 259 263 260 261 256 257 258 255 260 255 256 258 255 257 260 259 259 252 261 265 269 269 274 277 280 281 287 288 286 286 287 283 288 287 291 291 299 302 301 299 295 297 299 302
264 267 263 262 261 256 257 259 257 260 264 264 259 260 258 258 265 270 267 265 268 265 266 270 271 278 280 286 288 285 283 281 286 286 289 287 292 300 299 297 297 299 300 302 304